Simultaneous Nadir Overpasses (SNOs) Predictions

Prediction of SNOs between METOP-B and NOAA-19 Satellite Orbit:

Table of predicted SNOs for the next 14.0 days since TLE Epoch: 6/7/2013
Index Date (METOP-B) Time (METOP-B) Lat,Lon (METOP-B) SZA (METOP-B ) Date (NOAA-19) Time (NOAA-19) Lat,Lon (NOAA-19) SZA (NOAA-19 ) Distance(km) Time Diff (sec)
1 06/14/2013 00:23:02 -73.68, -11.49 129.58 06/14/2013 00:21:51 -73.72, -13.08 129.46 49.80 71
2 06/14/2013 01:13:49 73.36, 155.10 50.13 06/14/2013 01:12:47 73.35, 155.04 50.14 2.28 62
3 06/14/2013 02:04:31 -73.31, -37.67 129.92 06/14/2013 02:03:47 -73.30, -37.61 129.92 2.10 44
4 06/14/2013 02:55:12 73.28, 129.61 50.06 06/14/2013 02:54:50 73.27, 129.69 50.05 2.91 22
5 06/14/2013 03:45:53 -73.29, -63.05 129.94 06/14/2013 03:45:51 -73.28, -63.07 129.95 1.57 2
6 06/14/2013 04:36:34 73.26, 104.22 50.04 06/14/2013 04:36:54 73.25, 104.23 50.02 1.75 20
7 06/14/2013 05:27:16 -73.22, -88.55 130.01 06/14/2013 05:27:55 -73.25, -88.53 129.98 3.48 39
8 06/14/2013 06:17:56 73.24, 78.84 50.02 06/14/2013 06:18:58 73.22, 78.77 49.99 3.11 62
9 06/14/2013 07:08:42 -73.00,-114.37 130.21 06/14/2013 07:09:55 -73.03,-113.54 130.23 27.10 73




NCC Satellite Simultaneous Nadir Overpasses (SNOs) Prediction Service
